TimeCST,TemperatureF,Dew PointF,Humidity,Sea Level PressureIn,VisibilityMPH,Wind Direction,Wind SpeedMPH,Gust SpeedMPH,PrecipitationIn,Events,Conditions,WindDirDegrees,DateUTC
12:03 AM,15.8,12.2,86,30.35,2.5,South,4.6,-,N/A,,Clear,190,2013-12-23 06:03:00
12:10 AM,12.2,10.4,92,30.35,5.0,South,3.5,-,N/A,,Clear,190,2013-12-23 06:10:00
12:54 AM,9.0,5.0,84,30.43,4.0,SSW,3.5,-,N/A,,Clear,210,2013-12-23 06:54:00
1:54 AM,9.0,7.0,92,30.44,3.0,Calm,Calm,-,N/A,,Clear,0,2013-12-23 07:54:00
2:36 AM,8.6,5.0,85,30.37,4.0,NE,3.5,-,N/A,,Scattered Clouds,50,2013-12-23 08:36:00
2:38 AM,8.6,5.0,85,30.38,1.5,Calm,Calm,-,N/A,,Scattered Clouds,0,2013-12-23 08:38:00
2:41 AM,8.6,5.0,85,30.38,0.8,Calm,Calm,-,N/A,,Mist,0,2013-12-23 08:41:00
2:54 AM,8.1,6.1,92,30.46,0.2,Calm,Calm,-,N/A,Fog,Light Freezing Fog,0,2013-12-23 08:54:00
3:14 AM,3.2,-0.4,85,30.38,2.0,NNE,3.5,-,N/A,,Overcast,30,2013-12-23 09:14:00
3:22 AM,1.4,-2.2,85,30.38,5.0,NNE,3.5,-,N/A,,Overcast,30,2013-12-23 09:22:00
3:46 AM,3.2,-0.4,85,30.39,5.0,Calm,Calm,-,N/A,,Overcast,0,2013-12-23 09:46:00
3:54 AM,3.9,1.0,88,30.48,5.0,Calm,Calm,-,N/A,,Overcast,0,2013-12-23 09:54:00
4:54 AM,3.9,1.0,88,30.50,5.0,North,4.6,-,N/A,,Scattered Clouds,350,2013-12-23 10:54:00
5:05 AM,3.2,1.4,92,30.42,5.0,North,-9999.0,-,N/A,,Mostly Cloudy,0,2013-12-23 11:05:00
5:29 AM,3.2,1.4,92,30.42,4.0,North,4.6,-,N/A,,Overcast,360,2013-12-23 11:29:00
5:54 AM,3.9,1.0,88,30.52,4.0,North,3.5,-,N/A,,Overcast,350,2013-12-23 11:54:00
6:23 AM,6.8,3.2,85,30.45,1.8,North,5.8,-,N/A,,Overcast,10,2013-12-23 12:23:00
6:33 AM,6.8,3.2,85,30.46,3.0,North,5.8,-,N/A,,Overcast,360,2013-12-23 12:33:00
6:47 AM,8.6,6.8,92,30.48,3.0,North,8.1,-,N/A,,Overcast,360,2013-12-23 12:47:00
6:54 AM,10.0,8.1,92,30.56,4.0,NNE,8.1,-,N/A,,Overcast,20,2013-12-23 12:54:00
7:54 AM,12.0,8.1,84,30.60,9.0,NE,10.4,-,N/A,,Overcast,40,2013-12-23 13:54:00
8:30 AM,12.2,8.6,85,30.51,9.0,NE,10.4,-,N/A,,Overcast,50,2013-12-23 14:30:00
8:54 AM,12.9,9.0,84,30.61,6.0,NE,9.2,-,0.00,Snow,Light Snow,50,2013-12-23 14:54:00
9:47 AM,12.2,10.4,92,30.55,10.0,NE,12.7,-,0.00,,Overcast,40,2013-12-23 15:47:00
9:54 AM,12.9,10.0,88,30.65,10.0,NNE,10.4,-,0.00,,Overcast,30,2013-12-23 15:54:00
10:54 AM,14.0,10.0,84,30.68,4.0,NNE,10.4,-,N/A,,Overcast,20,2013-12-23 16:54:00
11:54 AM,14.0,10.0,84,30.67,10.0,NNE,9.2,-,N/A,,Overcast,30,2013-12-23 17:54:00
12:54 PM,15.1,9.0,77,30.65,10.0,NNE,9.2,-,N/A,,Overcast,20,2013-12-23 18:54:00
1:54 PM,16.0,10.9,81,30.63,10.0,Calm,Calm,-,N/A,,Overcast,0,2013-12-23 19:54:00
2:54 PM,16.0,10.0,77,30.63,10.0,NNE,3.5,-,N/A,,Mostly Cloudy,20,2013-12-23 20:54:00
3:54 PM,17.1,10.0,74,30.64,10.0,Calm,Calm,-,N/A,,Overcast,0,2013-12-23 21:54:00
4:54 PM,16.0,10.0,77,30.64,10.0,Calm,Calm,-,N/A,,Overcast,0,2013-12-23 22:54:00
5:54 PM,16.0,10.9,81,30.64,10.0,Calm,Calm,-,N/A,,Overcast,0,2013-12-23 23:54:00
6:54 PM,16.0,10.9,81,30.64,10.0,Calm,Calm,-,N/A,,Overcast,0,2013-12-24 00:54:00
7:54 PM,14.0,10.9,88,30.64,10.0,Calm,Calm,-,N/A,,Overcast,0,2013-12-24 01:54:00
8:54 PM,12.0,8.1,84,30.63,10.0,Calm,Calm,-,N/A,,Overcast,0,2013-12-24 02:54:00
9:35 PM,14.0,10.4,86,30.55,10.0,Calm,Calm,-,N/A,,Overcast,0,2013-12-24 03:35:00
9:54 PM,14.0,10.9,88,30.64,10.0,Calm,Calm,-,N/A,,Overcast,0,2013-12-24 03:54:00
10:54 PM,14.0,10.9,88,30.63,10.0,North,-9999.0,-,N/A,,Overcast,0,2013-12-24 04:54:00
11:54 PM,15.1,10.9,84,30.60,10.0,ESE,4.6,-,N/A,,Overcast,120,2013-12-24 05:54:00